Regional Weather Roundup
Issued by NWS

Home | Current Version | Previous Version | Graphics & Text | Print | Product List | Glossary On
Versions: 1 2 3 4 5 6 7 8 9 10 11 12 13 14 15 16 17 18 19 20 21 22 23 24 25 26 27 28 29 30 31 32 33 34 35 36 37 38 39 40 41 42 43 44 45 46 47 48 49 50
000
ASUS43 KLMK 250610
RWRKY
KENTUCKY REGIONAL WEATHER ROUNDUP
NATIONAL WEATHER SERVICE LOUISVILLE KY
200 AM EDT SAT MAR 25 2017

NOTE "FAIR" INDICATES FEW OR NO CLOUDS BELOW 12,000 FEET
WITH NO SIGNIFICANT WEATHER AND/OR OBSTRUCTIONS TO VISIBILITY.

KYZ001>023-026-027-061>063-070>075-250700-
WESTERN AND SOUTH CENTRAL KENTUCKY

CITY           SKY/WX    TMP DP  RH WIND       PRES   REMARKS
PADUCAH        MOCLDY    68  54  60 S14G23    29.97F
HENDERSON      CLOUDY    64  52  63 SE9       30.02F
OWENSBORO      CLOUDY    64  54  69 SE10      30.06F
HOPKINSVILLE   CLOUDY    66  54  64 SE8       30.06F
BOWLING GREEN  PTCLDY    63  50  62 SE5       30.11F
GLASGOW        CLEAR     63  49  60 S6        30.12F
$$

KYZ024-025-028>034-038-045-046-053-250700-
NORTH CENTRAL KENTUCKY

CITY           SKY/WX    TMP DP  RH WIND       PRES   REMARKS
LOUISVILLE/SDF PTCLDY    63  49  60 SE6       30.11F
LOUISVILLE/LOU PTCLDY    65  51  60 SE3       30.12F
FORT KNOX      CLEAR     61  51  71 SE7       30.10F
$$

KYZ035>037-039>044-047>052-055>060-089>105-250700-
NORTHEAST KENTUCKY

CITY           SKY/WX    TMP DP  RH WIND       PRES   REMARKS
LEXINGTON      CLOUDY    60  48  64 SE6       30.16F
COVINGTON      CLOUDY    60  52  74 S7        30.13F
FRANKFORT      CLOUDY    61  49  64 SE5       30.13F
$$

KYZ054-064>069-076>088-106>120-250700-
SOUTHEAST KENTUCKY

CITY           SKY/WX    TMP DP  RH WIND       PRES   REMARKS
JACKSON        CLOUDY    62  47  57 VRB6      30.20R
LONDON         PTCLDY    62  45  53 S6        30.18F
SOMERSET       CLOUDY    59  45  58 CALM      30.18F
MIDDLESBORO    MOCLDY    59  47  64 CALM      30.23S
MONTICELLO     MOCLDY    63  48  58 SE8       30.18F
$$




USA.gov is the U.S. government's official web portal to all federal, state and local government web resources and services.